DW4993 Weather Reports


Display with metric or nautical units.
time (UTC)temp
F
wind
direction
speed
MPH
gust
MPH
rain 1hr
in
rain 24hr
in
rain mn
in
humidity
%
barometer
mb
20260506141305 40 242 2.0 3.0 0.00 0.00 0.00 53 1011.9
20260506140805 39 241 3.0 5.0 0.00 0.00 0.00 53 1012.0
20260506140305 39 264 2.0 5.0 0.00 0.00 0.00 54 1012.1
20260506135805 39 238 3.0 6.0 0.00 0.00 0.00 55 1012.2
20260506135306 38 231 2.0 6.0 0.00 0.00 0.00 55 1012.2
20260506134805 37 276 1.0 2.0 0.00 0.00 0.00 57 1012.2
20260506134305 37 276 2.0 3.0 0.00 0.00 0.00 57 1012.2
20260506133806 36 283 2.0 3.0 0.00 0.00 0.00 58 1012.2
20260506133304 36 236 2.0 3.0 0.00 0.00 0.00 60 1012.2
20260506132805 35 244 2.0 5.0 0.00 0.00 0.00 60 1012.3
20260506132307 35 243 2.0 3.0 0.00 0.00 0.00 62 1012.4
20260506131805 34 232 2.0 3.0 0.00 0.00 0.00 62 1012.3
20260506131304 34 230 1.0 3.0 0.00 0.00 0.00 63 1012.3
20260506130805 33 222 1.0 3.0 0.00 0.00 0.00 64 1012.3
20260506130305 33 222 1.0 3.0 0.00 0.00 0.00 65 1012.3
20260506125806 32 222 1.0 3.0 0.00 0.00 0.00 66 1012.4
20260506125306 32 211 1.0 2.0 0.00 0.00 0.00 66 1012.4
20260506124805 32 210 2.0 3.0 0.00 0.00 0.00 66 1012.4
20260506124304 32 210 1.0 3.0 0.00 0.00 0.00 66 1012.4
20260506123806 32 210 1.0 3.0 0.00 0.00 0.00 66 1012.4
20260506123304 32 211 0.0 2.0 0.00 0.00 0.00 66 1012.5
20260506122804 32 210 0.0 2.0 0.00 0.00 0.00 66 1012.5
20260506122306 32 210 0.0 2.0 0.00 0.00 0.00 66 1012.5
20260506121804 32 211 1.0 1.0 0.00 0.00 0.00 66 1012.5
20260506120805 32 211 1.0 3.0 0.00 0.00 0.00 65 1012.6
20260506120306 32 211 2.0 3.0 0.00 0.00 0.00 65 1012.7
20260506115804 32 211 1.0 2.0 0.00 0.00 0.00 65 1012.7
20260506115307 32 211 1.0 3.0 0.00 0.00 0.00 65 1012.8
20260506114805 32 211 1.0 3.0 0.00 0.00 0.00 65 1012.8
20260506114306 32 211 0.0 2.0 0.00 0.00 0.00 64 1012.9
20260506113805 32 211 1.0 3.0 0.00 0.00 0.00 64 1013.0
20260506113304 32 211 1.0 3.0 0.00 0.00 0.00 64 1013.1
20260506112805 32 214 1.0 3.0 0.00 0.00 0.00 64 1013.1
20260506111805 32 214 1.0 3.0 0.00 0.00 0.00 63 1013.2
20260506111305 32 214 1.0 3.0 0.00 0.00 0.00 63 1013.2
20260506110804 33 214 0.0 2.0 0.00 0.00 0.00 63 1013.3
20260506110305 33 214 1.0 2.0 0.00 0.00 0.00 62 1013.3
20260506105804 33 214 1.0 3.0 0.00 0.00 0.00 62 1013.3
20260506105305 33 214 2.0 3.0 0.00 0.00 0.00 62 1013.4
20260506104805 33 215 1.0 3.0 0.00 0.00 0.00 62 1013.3
20260506104306 33 215 1.0 3.0 0.00 0.00 0.00 62 1013.4
20260506103805 33 215 2.0 3.0 0.00 0.00 0.00 61 1013.4
20260506102806 33 219 1.0 3.0 0.00 0.00 0.00 61 1013.6
20260506102306 33 219 1.0 3.0 0.00 0.00 0.00 60 1013.7
20260506101804 33 219 1.0 3.0 0.00 0.00 0.00 60 1013.8
20260506101306 33 219 1.0 2.0 0.00 0.00 0.00 60 1014.0
20260506100806 33 219 1.0 3.0 0.00 0.00 0.00 60 1014.0
20260506095805 33 223 1.0 3.0 0.00 0.00 0.00 59 1014.1
20260506095306 33 223 2.0 3.0 0.00 0.00 0.00 59 1014.3
20260506094806 33 229 1.0 3.0 0.00 0.00 0.00 59 1014.4
20260506094304 34 231 1.0 3.0 0.00 0.00 0.00 59 1014.4
20260506093304 34 244 1.0 3.0 0.00 0.00 0.00 58 1014.6
20260506092806 34 197 2.0 6.0 0.00 0.00 0.00 58 1014.6
20260506092306 34 194 1.0 5.0 0.00 0.00 0.00 57 1014.7
20260506091805 34 215 2.0 6.0 0.00 0.00 0.00 57 1014.7
20260506091304 34 201 2.0 3.0 0.00 0.00 0.00 57 1014.8
20260506090806 34 201 2.0 5.0 0.00 0.00 0.00 57 1014.9
20260506085306 34 205 3.0 6.0 0.00 0.00 0.00 56 1015.1
20260506084805 34 196 3.0 8.0 0.00 0.00 0.00 55 1015.2
20260506084304 35 202 3.0 7.0 0.00 0.00 0.00 55 1015.2
20260506083805 35 197 3.0 8.0 0.00 0.00 0.00 55 1015.2
20260506083305 35 202 2.0 7.0 0.00 0.00 0.00 55 1015.3
20260506082805 35 208 2.0 5.0 0.00 0.00 0.00 54 1015.4
20260506082305 35 196 2.0 6.0 0.00 0.00 0.00 54 1015.4
20260506081804 35 205 2.0 5.0 0.00 0.00 0.00 54 1015.5
20260506081304 35 188 2.0 7.0 0.00 0.00 0.00 54 1015.6
20260506080806 35 202 2.0 5.0 0.00 0.00 0.00 54 1015.5
20260506080304 35 259 1.0 3.0 0.00 0.00 0.00 54 1015.7
20260506073304 36 203 1.0 3.0 0.00 0.00 0.00 53 1016.0
20260506072306 36 203 1.0 3.0 0.00 0.00 0.00 52 1016.1
20260506071805 36 203 1.0 3.0 0.00 0.00 0.00 52 1016.2
20260506071305 36 196 2.0 6.0 0.00 0.00 0.00 52 1016.1
20260506070806 36 202 1.0 5.0 0.00 0.00 0.00 51 1016.3
20260506070305 36 208 2.0 5.0 0.00 0.00 0.00 51 1016.2
20260506062305 37 203 2.0 3.0 0.00 0.00 0.00 49 1016.7
20260506061304 37 237 2.0 6.0 0.00 0.00 0.00 49 1016.7
20260506060819 37 192 3.0 7.0 0.00 0.00 0.00 49 1016.8
20260506060305 38 198 2.0 8.0 0.00 0.00 0.00 49 1016.9
20260506051305 39 177 0.0 2.0 0.00 0.00 0.00 48 1017.2
20260506050304 39 182 1.0 3.0 0.00 0.00 0.00 48 1017.2
20260506044304 40 104 0.0 3.0 0.00 0.00 0.00 46 1017.3
20260506043805 41 206 1.0 3.0 0.00 0.00 0.00 45 1017.4
20260506043305 41 124 1.0 2.0 0.00 0.00 0.00 45 1017.4
20260506042805 41 123 1.0 3.0 0.00 0.00 0.00 44 1017.4
20260506042305 41 95 1.0 3.0 0.00 0.00 0.00 44 1017.4
20260506041804 41 97 0.0 2.0 0.00 0.00 0.00 43 1017.3
20260506041305 42 96 0.0 2.0 0.00 0.00 0.00 43 1017.4
20260506040805 42 95 0.0 2.0 0.00 0.00 0.00 42 1017.4
20260506040305 42 84 1.0 3.0 0.00 0.00 0.00 42 1017.3
20260506035804 42 118 2.0 3.0 0.00 0.00 0.00 42 1017.4
20260506034805 43 192 1.0 3.0 0.00 0.00 0.00 41 1017.4
20260506034305 43 123 1.0 3.0 0.00 0.00 0.00 40 1017.3
20260506033804 43 143 1.0 3.0 0.00 0.00 0.00 40 1017.3
20260506033305 43 148 0.0 3.0 0.00 0.00 0.00 39 1017.3
20260506032804 44 85 1.0 3.0 0.00 0.00 0.00 39 1017.3
20260506032305 44 164 1.0 2.0 0.00 0.00 0.00 39 1017.3
20260506031804 44 171 1.0 5.0 0.00 0.00 0.00 38 1017.2
20260506030804 45 148 0.0 3.0 0.00 0.00 0.00 37 1017.2
20260506030304 46 130 1.0 3.0 0.00 0.00 0.00 37 1017.1
20260506025805 46 108 0.0 3.0 0.00 0.00 0.00 36 1017.1
20260506025306 46 107 1.0 3.0 0.00 0.00 0.00 36 1017.1
20260506023805 47 89 3.0 9.0 0.00 0.00 0.00 34 1017.0
20260506022805 48 135 1.0 3.0 0.00 0.00 0.00 33 1017.1
20260506022306 48 302 2.0 5.0 0.00 0.00 0.00 32 1017.0
20260506021804 49 73 3.0 10.0 0.00 0.00 0.00 32 1017.0
20260506021306 49 153 2.0 8.0 0.00 0.00 0.00 31 1017.0
20260506020805 50 111 3.0 8.0 0.00 0.00 0.00 31 1017.1
20260506020304 50 113 2.0 3.0 0.00 0.00 0.00 30 1017.2
20260506015805 50 136 1.0 6.0 0.00 0.00 0.00 30 1017.1
20260506015306 50 94 2.0 8.0 0.00 0.00 0.00 28 1017.0
20260506014305 51 82 3.0 10.0 0.00 0.00 0.00 28 1017.0
20260506013806 51 85 4.0 10.0 0.00 0.00 0.00 27 1017.1
20260506013304 51 27 2.0 8.0 0.00 0.00 0.00 27 1017.1
20260506012805 51 96 3.0 8.0 0.00 0.00 0.00 27 1017.1
20260506012308 52 80 2.0 6.0 0.00 0.00 0.00 27 1017.1
20260506011804 52 31 1.0 6.0 0.00 0.00 0.00 27 1017.1
20260506011304 52 75 2.0 6.0 0.00 0.00 0.00 27 1017.2
20260506010805 52 106 3.0 9.0 0.00 0.00 0.00 27 1017.2
20260506010305 52 112 2.0 3.0 0.00 0.00 0.00 27 1017.2
20260506005805 51 147 2.0 5.0 0.00 0.00 0.00 27 1017.2
20260506004805 52 71 3.0 9.0 0.00 0.00 0.00 27 1017.3
20260506004306 52 110 2.0 9.0 0.00 0.00 0.00 27 1017.4
20260506003805 52 53 5.0 12.0 0.00 0.00 0.00 26 1017.3
20260506003304 52 81 1.0 3.0 0.00 0.00 0.00 26 1017.3
20260506002806 52 96 3.0 13.0 0.00 0.00 0.00 26 1017.4
20260506001804 53 90 2.0 6.0 0.00 0.00 0.00 26 1017.4
20260506001304 53 22 3.0 7.0 0.00 0.00 0.00 27 1017.5
20260506000804 53 29 3.0 7.0 0.00 0.00 0.00 28 1017.5
20260506000305 52 39 3.0 6.0 0.00 0.00 0.00 28 1017.6
20260505235805 52 41 5.0 12.0 0.00 0.00 0.00 28 1017.6
20260505235305 52 48 3.0 8.0 0.00 0.00 0.00 27 1017.6
20260505234804 52 100 2.0 10.0 0.00 0.00 0.00 28 1017.6
20260505233805 53 95 3.0 7.0 0.00 0.00 0.00 27 1017.6
20260505232805 53 71 1.0 5.0 0.00 0.00 0.00 26 1017.7
20260505232305 53 5 4.0 10.0 0.00 0.00 0.00 27 1017.7
20260505231804 53 34 3.0 9.0 0.00 0.00 0.00 29 1017.8
20260505231305 53 21 3.0 8.0 0.00 0.00 0.00 29 1017.8
20260505230804 53 67 3.0 13.0 0.00 0.00 0.00 28 1017.9
20260505230305 53 40 3.0 8.0 0.00 0.00 0.00 29 1018.0
20260505225805 53 23 3.0 10.0 0.00 0.00 0.00 29 1018.1
20260505225306 53 91 4.0 12.0 0.00 0.00 0.00 28 1018.1
20260505224805 53 96 2.0 9.0 0.00 0.00 0.00 31 1018.2
20260505224304 53 43 3.0 7.0 0.00 0.00 0.00 29 1018.3
20260505223805 53 25 5.0 9.0 0.00 0.00 0.00 31 1018.4
20260505223304 53 47 5.0 12.0 0.00 0.00 0.00 31 1018.4
20260505222805 53 99 5.0 9.0 0.00 0.00 0.00 30 1018.3
20260505222306 53 35 4.0 12.0 0.00 0.00 0.00 31 1018.5
20260505221804 53 52 4.0 12.0 0.00 0.00 0.00 32 1018.6
20260505221304 53 51 2.0 9.0 0.00 0.00 0.00 30 1018.6
20260505220305 53 45 5.0 9.0 0.00 0.00 0.00 32 1018.7
20260505215804 52 38 5.0 12.0 0.00 0.00 0.00 33 1018.8
20260505215305 52 68 4.0 10.0 0.00 0.00 0.00 31 1018.8
20260505214805 53 14 5.0 10.0 0.00 0.00 0.00 32 1018.9
20260505214304 52 42 3.0 8.0 0.00 0.00 0.00 32 1018.8
20260505213805 52 23 3.0 8.0 0.00 0.00 0.00 34 1018.9
20260505213305 52 40 3.0 12.0 0.00 0.00 0.00 33 1019.0
20260505212804 51 28 5.0 10.0 0.00 0.00 0.00 34 1019.0
20260505211805 52 76 4.0 8.0 0.00 0.00 0.00 34 1019.0
20260505211305 52 26 5.0 10.0 0.00 0.00 0.00 35 1019.0
20260505210304 51 50 3.0 9.0 0.00 0.00 0.00 35 1019.1
20260505205305 52 41 4.0 12.0 0.00 0.00 0.00 34 1019.1
20260505204804 51 27 3.0 10.0 0.00 0.00 0.00 36 1019.2
20260505204305 51 41 6.0 10.0 0.00 0.00 0.00 36 1019.2
20260505203805 50 31 3.0 10.0 0.00 0.00 0.00 36 1019.3
20260505203304 50 46 4.0 10.0 0.00 0.00 0.00 36 1019.3
20260505202804 50 72 3.0 8.0 0.00 0.00 0.00 36 1019.3
20260505202306 50 340 3.0 13.0 0.00 0.00 0.00 37 1019.3
20260505201806 51 31 5.0 12.0 0.00 0.00 0.00 35 1019.3
20260505201304 51 37 4.0 10.0 0.00 0.00 0.00 36 1019.3
20260505200805 51 75 5.0 14.0 0.00 0.00 0.00 35 1019.2
20260505195805 50 45 3.0 10.0 0.00 0.00 0.00 37 1019.6
20260505195305 50 44 5.0 8.0 0.00 0.00 0.00 39 1019.5
20260505194805 50 67 5.0 12.0 0.00 0.00 0.00 35 1019.6
20260505193804 49 44 2.0 12.0 0.00 0.00 0.00 38 1019.6
20260505192805 50 47 5.0 12.0 0.00 0.00 0.00 38 1019.6
20260505192306 49 26 3.0 9.0 0.00 0.00 0.00 37 1019.7
20260505191804 49 35 4.0 13.0 0.00 0.00 0.00 38 1019.8
20260505191306 48 56 6.0 13.0 0.00 0.00 0.00 41 1019.8
20260505190804 47 20 3.0 12.0 0.00 0.00 0.00 40 1019.8
20260505190305 48 30 3.0 9.0 0.00 0.00 0.00 39 1019.8
20260505185804 47 289 2.0 8.0 0.00 0.00 0.00 39 1019.8
20260505185305 47 4 5.0 10.0 0.00 0.00 0.00 38 1019.9
20260505184804 48 33 5.0 12.0 0.00 0.00 0.00 37 1019.9
20260505183804 49 53 3.0 10.0 0.00 0.00 0.00 38 1019.9
20260505183305 49 30 4.0 8.0 0.00 0.00 0.00 42 1019.9
20260505182805 48 284 3.0 7.0 0.00 0.00 0.00 40 1019.8
20260505182306 47 15 3.0 9.0 0.00 0.00 0.00 42 1019.9
20260505181805 47 23 4.0 12.0 0.00 0.00 0.00 39 1020.0
20260505181306 47 3 5.0 10.0 0.00 0.00 0.00 40 1019.9
20260505180804 48 25 6.0 12.0 0.00 0.00 0.00 38 1020.0
20260505180305 47 33 3.0 10.0 0.00 0.00 0.00 43 1020.0
20260505175804 46 34 5.0 12.0 0.00 0.00 0.00 40 1020.0
20260505175305 46 22 3.0 8.0 0.00 0.00 0.00 39 1019.9
20260505174806 46 0 3.0 12.0 0.00 0.00 0.00 37 1019.9
20260505173805 47 17 6.0 12.0 0.00 0.00 0.00 40 1019.9
20260505173304 46 9 7.0 13.0 0.00 0.00 0.00 41 1019.8
20260505172805 45 4 6.0 12.0 0.00 0.00 0.00 40 1019.9
20260505172306 45 28 5.0 12.0 0.00 0.00 0.00 42 1019.9
20260505171305 45 3 6.0 13.0 0.00 0.00 0.00 39 1019.9
20260505170804 45 19 6.0 13.0 0.00 0.00 0.00 38 1019.9
20260505170304 45 33 4.0 10.0 0.00 0.00 0.00 38 1019.9
20260505165805 45 6 4.0 12.0 0.00 0.00 0.00 40 1019.9
20260505165306 46 32 5.0 12.0 0.00 0.00 0.00 38 1019.7
20260505164806 46 19 3.0 8.0 0.00 0.00 0.00 41 1019.8
20260505164305 46 358 3.0 6.0 0.00 0.00 0.00 49 1019.8
20260505163805 45 311 5.0 9.0 0.00 0.00 0.00 52 1019.8
20260505163306 44 13 4.0 12.0 0.00 0.00 0.00 53 1019.7
20260505162804 44 311 2.0 12.0 0.00 0.00 0.00 52 1019.8
20260505160305 42 316 3.0 8.0 0.00 0.00 0.00 56 1019.9
20260505153305 41 16 3.0 9.0 0.00 0.00 0.00 58 1019.9
20260505152805 41 15 3.0 8.0 0.00 0.00 0.00 57 1020.0
20260505152305 41 6 1.0 6.0 0.00 0.00 0.00 58 1020.0
20260505151804 41 10 5.0 8.0 0.00 0.00 0.00 57 1020.0
20260505151305 41 33 2.0 8.0 0.00 0.00 0.00 58 1020.0
20260505150304 40 15 2.0 7.0 0.00 0.00 0.00 58 1019.9